Terminal Aerodrome Forecast
Issued by NWS

Home | Current Version | Previous Version | Text Only | Print | Product List | Glossary On
Versions: 1 2 3 4 5 6 7 8 9 10 11 12 13 14 15 16
000
FTUS44 KTSA 240500
TAFFYV
TAF
KFYV 240520Z 2406/2506 14007G14KT P6SM SKC
     FM241200 18011KT P6SM BKN025
      TEMPO 2412/2416 3SM -TSRA BKN025CB
     FM241600 18011G21KT P6SM VCTS BKN025CB
     FM242300 27012G20KT P6SM BKN050
     FM250200 28009KT P6SM SCT250=

USA.gov is the U.S. government's official web portal to all federal, state and local government web resources and services.